Location: Bavegemberg
(50.9500°N, 3.8833°E)
Time: 10:22:03
(UTC+00:00)

SL-27 R/B - Pass Details

Date: 23 May 2024
Orbit: 329 x 354 km, 74.7° (Epoch: 14 June)

Event Time Altitude Azimuth Distance (km) Brightness Sun altitude
Exits shadow 02:42:03 12° 211° (SSW) 1,177 3.9 -8.1°
Maximum altitude 02:44:34 66° 294° (WNW) 368 1.9 -7.9°
Drops below altitude 10° 02:47:19 10° 18° (NNE) 1,272 5.9 -7.6°
Sets 02:49:17 0° 21° (NNE) 2,114 7.3 -7.4°
